Detroit, MI

1:21 PM EST on November 12, 2019 (GMT -0500)
Detroit City

Weather History for KDET - October, 2019

Change the Weather History Date:

Monday, October 21, 2019

  Actual Average Record
Temperature  
Mean Temperature 57 °F -  
Max Temperature 66 °F 58 °F 79 °F (2007)
Min Temperature 48 °F 44 °F 27 °F (1952)
Degree Days  
Heating Degree Days 8    
Growing Degree Days 7 (Base 50)    
Moisture  
Dew Point 52 °F    
Average Humidity 83    
Maximum Humidity 100    
Minimum Humidity 52    
Precipitation  
Precipitation 0.17 in - - ()
Sea Level Pressure  
Sea Level Pressure 29.85 in    
Wind  
Wind Speed 7 mph (ESE)    
Max Wind Speed 16 mph    
Max Gust Speed 25 mph    
Visibility 8 miles    
Events Rain    
Averages and records for this station are not official NWS values.
T = Trace of Precipitation, MM = Missing Value Source: NWS Daily Summary

Daily Weather History Graph

Daily Weather History Graph

Search for Another Location

Airport or City:

Astronomy

Oct. 21, 2019 Rise Set
Actual Time 7:51 AM EDT 6:40 PM EDT
Civil Twilight 7:23 AM EDT 7:09 PM EDT
Nautical Twilight 6:50 AM EDT 7:42 PM EDT
Astronomical Twilight 6:17 AM EDT 8:14 PM EDT
Moon No Moon Rise 3:13 PM EDT (10/21)
Length of Visible Light 11h 46m
Length of Day
10h 49m
Waning Gibbous, 48% of the Moon is Illuminated
Oct 21
Waning Gibbous
Oct 27
New
Nov 4
First Quarter
Nov 12
Full
Nov 19
Last Quarter

Hourly Weather History & Observations

Time (EDT) Temp. Dew Point Humidity Pressure Visibility Wind Dir Wind Speed Gust Speed Precip Events Conditions
12:53 AM 48.9 °F 46.9 °F 93% 29.99 in 9.0 mi NNE 3.5 mph - N/A   Clear
1:53 AM 50.0 °F 48.0 °F 93% 29.99 in 9.0 mi North 4.6 mph - N/A   Clear
2:53 AM 48.9 °F 46.9 °F 93% 29.98 in 7.0 mi NE 4.6 mph - N/A   Partly Cloudy
3:53 AM 48.0 °F 46.0 °F 93% 29.97 in 6.0 mi NNE 4.6 mph - N/A   Partly Cloudy
4:53 AM 48.9 °F 46.9 °F 93% 29.96 in 5.0 mi North 3.5 mph - N/A   Overcast
5:53 AM 48.0 °F 46.9 °F 96% 29.96 in 5.0 mi North 3.5 mph - N/A   Overcast
6:53 AM 50.0 °F 48.9 °F 96% 29.97 in 6.0 mi NE 3.5 mph - N/A   Overcast
7:53 AM 50.0 °F 48.9 °F 96% 29.94 in 4.0 mi NE 3.5 mph - N/A   Mostly Cloudy
8:53 AM 53.1 °F 53.1 °F 100% 29.93 in 4.0 mi ESE 5.8 mph - N/A   Mostly Cloudy
9:53 AM 57.0 °F 55.9 °F 96% 29.92 in 9.0 mi ESE 8.1 mph - N/A   Overcast
10:53 AM 61.0 °F 55.0 °F 81% 29.88 in 10.0 mi SE 10.4 mph - N/A   Clear
11:53 AM 64.0 °F 55.0 °F 73% 29.87 in 10.0 mi SSE 10.4 mph 18.4 mph N/A   Overcast
12:53 PM 66.0 °F 52.0 °F 60% 29.84 in 10.0 mi SSE 12.7 mph 24.2 mph N/A   Overcast
1:53 PM 66.9 °F 48.9 °F 52% 29.79 in 10.0 mi SE 13.8 mph 25.3 mph N/A   Overcast
2:53 PM 66.9 °F 48.9 °F 52% 29.78 in 10.0 mi SSE 13.8 mph 21.9 mph N/A   Partly Cloudy
3:53 PM 64.0 °F 53.1 °F 67% 29.75 in 7.0 mi SSE 12.7 mph - 0.02 in Rain Light Rain
4:53 PM 61.0 °F 54.0 °F 78% 29.71 in 10.0 mi SE 13.8 mph 24.2 mph 0.04 in Rain Light Rain
5:53 PM 61.0 °F 54.0 °F 78% 29.70 in 10.0 mi SE 16.1 mph - 0.00 in   Overcast
6:53 PM 61.0 °F 54.0 °F 78% 29.69 in 10.0 mi SSE 9.2 mph - 0.00 in Rain Light Rain
7:53 PM 62.1 °F 55.0 °F 78% 29.67 in 10.0 mi South 10.4 mph - 0.02 in Rain Light Rain
8:53 PM 63.0 °F 57.0 °F 81% 29.67 in 10.0 mi South 10.4 mph 19.6 mph 0.04 in Rain Light Rain
9:53 PM 63.0 °F 61.0 °F 93% 29.66 in 10.0 mi South 16.1 mph 25.3 mph 0.05 in Rain Light Rain